Location: ??????????
(31.2156°N, 29.9553°E)
Time: 07:13:52
(UTC+00:00)

GP-B - Pass Details

Date: 03 March 2021
Orbit: 631 x 635 km, 89.8° (Epoch: 15 April)

Event Time Altitude Azimuth Distance (km) Brightness Sun altitude
Rises 17:40:02 0° 190° (S) 2,912 6.6 -22.2°
Reaches altitude 10° 17:42:19 10° 196° (SSW) 2,009 5.8 -22.7°
Maximum altitude 17:46:34 47° 270° (W) 845 4.1 -23.6°
Drops below altitude 10° 17:50:51 10° 344° (NNW) 2,022 5.9 -24.5°
Sets 17:53:09 0° 350° (N) 2,934 6.7 -25.0°
